Location: Unspecified
(41.1637°N, 24.2901°E)
Time: 08:19:05
(UTC+01:00)

ISS - Pass Details

Date: 09 December 2018
Orbit: 401 x 408 km, 51.6° (Epoch: 12 December)

Event Time Altitude Azimuth Distance (km) Brightness Sun altitude
Rises 18:23:04 0° 303° (WNW) 2,316 0.7 -27.3°
Reaches altitude 10° 18:25:10 10° 300° (WNW) 1,454 -0.4 -27.6°
Enters shadow 18:25:51 15° 297° (WNW) 1,179 -0.9 -27.8°
